Home   Weather   Hohenems   Past weeks

Flag for Austria Past Weather in Hohenems, Vorarlberg, Austria — Yesterday and Last 2 Weeks

Now
17 °F

Cold.


Feels Like: 17 °F
Forecast: 12 / 32 °F
Wind: No wind

Location: Feldkirch

Current Time: Jan 24, 2017 at 6:23:29 am

Latest Report: Jan 24, 2017 at 5:00 am


Visibility: N/A

Pressure: 30.35 "Hg

Humidity: 91%

Dew Point: 15 °F

Location of HohenemsLocation

Past Weather in Hohenems — Graph

°F

Hohenems Temperature Yesterday

Maximum temperature yesterday: 21 °F (at 6:00 pm)
Minimum temperature yesterday: 13 °F (at 7:00 am)
Average temperature yesterday: 16 °F

High & Low Weather Summary for the Past Weeks

 TemperatureHumidityPressure
High43 °F (Jan 13, 3:00 am)98% (Jan 12, 6:00 am)30.60 "Hg (Jan 12, 6:00 am)
Low6 °F (Jan 20, 6:00 am)60% (Jan 13, 5:00 am)29.47 "Hg (Jan 13, 2:00 am)
Average24 °F87%30.25 "Hg
* Reported Jan 9 4:00 am — Jan 24 4:00 am, Hohenems, Weather by CustomWeather, © 2017

Note: Actual official high and low records may vary slightly from our data, if they occured in-between our weather recording intervals... More about our weather records

Advertising

Hohenems Weather History for the Previous 24 Hours

Scroll right to see more
 ConditionsComfort  
Time TempWeatherWind HumidityBarometerVisibility
4:00 am
Tue, Jan 24
17 °FCold.1 mph92%30.35 "HgN/A
3:00 am16 °FCold.1 mph92%30.36 "HgN/A
2:00 am17 °FCold.2 mph93%30.34 "HgN/A
1:00 am17 °FCold.1 mph93%30.34 "HgN/A
12:00 am17 °FCold.1 mph93%30.33 "HgN/A
11:00 pm
Mon, Jan 23
17 °FCold.1 mph93%30.33 "HgN/A
10:00 pm18 °FCold.1 mph93%30.34 "HgN/A
9:00 pm18 °FCold.1 mph93%30.33 "HgN/A
8:00 pm19 °FCold.1 mph93%30.33 "HgN/A
7:00 pm20 °FCold.1 mph94%30.32 "HgN/A
6:00 pm21 °FCold.No wind94%30.32 "HgN/A
5:00 pm20 °FCold.1 mph94%30.31 "HgN/A
4:00 pm20 °FCold.No wind93%30.30 "HgN/A
3:00 pm20 °FCold.1 mph93%30.30 "HgN/A
2:00 pm19 °FCold.No wind93%30.31 "HgN/A
1:00 pm17 °FCold.No wind93%30.33 "HgN/A
12:00 pm16 °FCold.1 mph93%30.35 "HgN/A
11:00 am15 °FCold.1 mph93%30.36 "HgN/A
10:00 am14 °FFog.No wind95%30.36 "Hg0 mi
9:00 am14 °FCold.No wind92%30.35 "HgN/A
8:00 am13 °FCold.1 mph92%30.36 "HgN/A
7:00 am13 °FLow clouds.2 mph96%30.35 "Hg1 mi
6:00 am13 °FCold.1 mph92%30.35 "HgN/A
Weather by CustomWeather, © 2017

See weather overviewHow to use our weather pages